"startDT [UTC]","vpos","CH4 [ppm]","stdev(CH4) [ppm]","CO2 [ppm]","stdev(CO2) [ppm]","H2O_reported [%]","stdev(H2O_reported)","CavityPressure [torr]","CavityTemp [C]","OutletValve","CH4_dry [ppm]","CO2_dry [ppm]","DasTemp [C]","EtalonTemp [C]","WarmBoxTemp [C]","MPVPosition","T_ECpre [C]","T_EC1 [C]","T_EC2 [C]","p_inlet [hPa]","p_in [hPa]","p_out [hPa]","T_inlet [C]","RH_inlet [%]","dwpt_inlet [C]","T_vent [C]","RH_vent [%]","dwpt_vent [C]","flow_vent [l min-1]","flow_inlet [l min-1]","dwpt_sample [C]","T_room [C]"
2015-08-12 00:00:00,0.0,1.91637,0.00039,384.471,0.124,1.0430,0.0023,139.997,45.000,34494.07024,1.93667,389.465,32.750,45.068,45.000,0.00,0.10,-272.73,-272.79,-7,1012,-5,23.4,28.5,4.1,23.2,29.4,4.4,5.73,1.89,2.7,27.4
2015-08-12 00:01:00,0.0,1.91639,0.00040,384.482,0.138,1.0477,0.0031,139.997,45.000,34491.92780,1.93686,389.500,32.750,45.068,45.000,0.00,0.10,-272.73,-272.80,-7,1012,-5,23.4,28.7,4.2,23.2,29.5,4.4,5.73,1.95,2.7,27.3
2015-08-12 00:02:00,0.0,1.91637,0.00054,384.507,0.100,1.0516,0.0026,140.000,45.000,34492.86019,1.93682,389.521,32.746,45.068,45.000,0.00,0.10,-272.73,-272.80,-7,1013,-5,23.4,28.8,4.2,23.2,29.5,4.4,5.73,1.94,2.7,27.4
2015-08-12 00:03:00,0.0,1.91669,0.00025,384.704,0.038,1.0530,0.0027,140.005,45.000,34494.39178,1.93730,389.750,32.750,45.068,45.000,0.00,0.10,-272.73,-272.79,-8,1013,-5,23.4,28.8,4.2,23.2,29.6,4.4,5.73,1.89,2.7,27.4
2015-08-12 00:04:00,0.0,1.91656,0.00032,384.628,0.084,1.0433,0.0022,140.001,45.000,34496.35534,1.93687,389.622,32.749,45.068,45.000,0.00,0.10,-272.74,-272.80,-8,1013,-5,23.4,28.5,4.1,23.2,29.4,4.4,5.73,1.84,2.7,27.4
2015-08-12 00:05:00,0.0,1.91675,0.00052,384.613,0.129,1.0440,0.0021,139.999,45.000,34494.10978,1.93714,389.607,32.746,45.068,45.000,0.00,0.10,-272.74,-272.80,-7,1012,-5,23.4,28.5,4.1,23.2,29.4,4.3,5.73,1.85,2.7,27.4
2015-08-12 00:06:00,0.0,1.91697,0.00044,384.551,0.172,1.0497,0.0036,140.004,45.000,34494.19192,1.93739,389.573,32.749,45.068,45.000,0.00,0.10,-272.73,-272.79,-7,1013,-5,23.4,28.7,4.2,23.2,29.5,4.4,5.73,1.92,2.7,27.4
2015-08-12 00:07:00,0.0,1.91705,0.00028,384.506,0.128,1.0514,0.0032,140.004,45.000,34496.10961,1.93760,389.538,32.750,45.068,45.000,0.00,0.10,-272.73,-272.79,-8,1013,-5,23.4,28.8,4.2,23.2,29.6,4.4,5.73,1.96,2.7,27.4
2015-08-12 00:08:00,0.0,1.91715,0.00026,384.481,0.138,1.0460,0.0018,139.999,45.000,34493.73058,1.93756,389.491,32.750,45.068,45.000,0.00,0.10,-272.74,-272.80,-8,1012,-5,23.4,28.6,4.1,23.2,29.4,4.4,5.73,1.92,2.7,27.4
2015-08-12 00:09:00,0.0,1.91739,0.00039,384.311,0.303,1.0457,0.0026,140.000,45.000,34491.90918,1.93775,389.298,32.750,45.068,45.000,0.00,0.10,-272.74,-272.80,-7,1012,-5,23.4,28.6,4.2,23.2,29.4,4.4,5.73,1.86,2.7,27.4
2015-08-12 00:10:00,0.0,1.91743,0.00043,384.514,0.110,1.0534,0.0021,140.002,45.000,34490.53212,1.93797,389.556,32.750,45.068,45.000,0.00,0.10,-272.74,-272.80,-7,1012,-5,23.4,28.8,4.3,23.2,29.6,4.4,5.73,1.84,2.7,27.4
2015-08-12 00:11:00,0.0,1.91783,0.00031,384.489,0.168,1.0498,0.0019,139.999,45.000,34490.44702,1.93831,389.522,32.750,45.068,45.000,0.00,0.10,-272.73,-272.80,-7,1012,-5,23.4,28.7,4.2,23.2,29.5,4.4,5.73,1.87,2.7,27.5
2015-08-12 00:12:00,0.0,1.91795,0.00051,384.245,0.208,1.0465,0.0020,140.002,45.000,34492.80853,1.93836,389.238,32.750,45.068,45.000,0.00,0.10,-272.74,-272.80,-8,1012,-5,23.4,28.6,4.2,23.2,29.4,4.3,5.73,1.94,2.7,27.4
2015-08-12 00:13:00,0.0,1.91812,0.00044,384.281,0.112,1.0549,0.0030,139.993,45.000,34491.87900,1.93873,389.333,32.751,45.068,45.000,0.00,0.10,-272.73,-272.79,-7,1012,-5,23.4,28.8,4.3,23.2,29.7,4.5,5.73,1.95,2.7,27.4
2015-08-12 00:14:00,0.0,1.91868,0.00038,384.374,0.125,1.0553,0.0027,140.001,45.000,34491.36457,1.93925,389.412,32.750,45.068,45.000,0.00,0.10,-272.74,-272.79,-7,1012,-5,23.4,28.9,4.3,23.2,29.7,4.5,5.73,1.91,2.7,27.4
2015-08-12 00:15:00,0.0,1.91878,0.00042,384.294,0.091,1.0589,0.0019,139.999,45.000,34490.80214,1.93949,389.364,32.756,45.068,45.000,0.00,0.10,-272.74,-272.80,-7,1013,-5,23.4,28.9,4.3,23.2,29.8,4.6,5.73,1.85,2.7,27.5
2015-08-12 00:16:00,0.0,1.91845,0.00035,384.369,0.112,1.0599,0.0025,140.001,45.000,34491.54219,1.93918,389.437,32.761,45.068,45.000,0.00,0.10,-272.73,-272.80,-8,1012,-5,23.4,29.0,4.3,23.2,29.8,4.5,5.73,1.84,2.7,27.5
2015-08-12 00:17:00,0.0,1.91809,0.00038,384.516,0.190,1.0617,0.0012,140.000,45.000,34491.05405,1.93881,389.593,32.806,45.068,45.000,0.00,0.10,-272.73,-272.79,-7,1012,-5,23.4,29.0,4.3,23.2,29.9,4.6,5.73,1.89,2.7,27.5
2015-08-12 00:18:00,0.0,1.91832,0.00032,384.402,0.112,1.0497,0.0063,140.001,45.000,34490.88756,1.93881,389.429,32.808,45.068,45.000,0.00,0.10,-272.73,-272.80,-7,1012,-5,23.4,28.6,4.1,23.2,29.6,4.4,5.73,1.94,2.7,27.5
2015-08-12 00:19:00,0.0,1.91773,0.00041,384.205,0.255,1.0450,0.0025,140.001,45.000,34489.47952,1.93819,389.212,32.812,45.068,45.000,0.00,0.10,-272.74,-272.80,-7,1012,-5,23.4,28.6,4.1,23.2,29.3,4.3,5.73,1.95,2.7,27.4
2015-08-12 00:20:00,0.0,1.91787,0.00043,384.575,0.106,1.0535,0.0034,140.001,45.000,34489.42781,1.93837,389.600,32.816,45.068,45.000,0.00,0.10,-272.73,-272.79,-8,1012,-5,23.4,28.8,4.2,23.2,29.6,4.5,5.73,1.89,2.7,27.4
2015-08-12 00:21:00,0.0,1.91766,0.00036,384.588,0.163,1.0466,0.0048,140.003,45.000,34492.38181,1.93816,389.588,32.813,45.068,45.000,0.00,0.10,-272.73,-272.80,-8,1012,-5,23.4,28.5,4.1,23.2,29.4,4.4,5.73,1.84,2.7,27.5
2015-08-12 00:22:00,0.0,1.91812,0.00052,384.551,0.214,1.0321,0.0046,140.002,45.000,34491.89458,1.93820,389.509,32.813,45.068,45.000,0.00,0.10,-272.74,-272.80,-7,1012,-5,23.4,28.1,3.9,23.2,29.0,4.2,5.73,1.84,2.7,27.4
2015-08-12 00:23:00,0.0,1.91775,0.00043,384.121,0.257,1.0398,0.0072,140.001,45.000,34494.01587,1.93810,389.078,32.813,45.068,45.000,0.00,0.10,-272.73,-272.80,-7,1013,-5,23.4,28.5,4.1,23.2,29.1,4.2,5.73,1.91,2.7,27.5
2015-08-12 00:24:00,0.0,1.91780,0.00036,384.473,0.152,1.0531,0.0030,140.000,45.000,34494.37026,1.93836,389.502,32.813,45.068,45.000,0.00,0.10,-272.73,-272.79,-7,1013,-5,23.4,28.8,4.2,23.2,29.6,4.4,5.73,1.95,2.7,27.4
2015-08-12 00:25:00,0.0,1.91767,0.00045,384.462,0.118,1.0438,0.0030,140.000,45.000,34495.21567,1.93803,389.467,32.813,45.068,45.000,0.00,0.10,-272.74,-272.80,-8,1012,-5,23.4,28.4,4.0,23.2,29.3,4.3,5.73,1.94,2.7,27.4
2015-08-12 00:26:00,0.0,1.91750,0.00077,384.259,0.259,1.0416,0.0031,140.000,45.000,34491.78859,1.93790,389.220,32.815,45.068,45.000,0.00,0.10,-272.74,-272.80,-7,1012,-5,23.4,28.5,4.1,23.2,29.3,4.3,5.73,1.87,2.7,27.4
2015-08-12 00:27:00,0.0,1.91640,0.00049,384.394,0.249,1.0444,0.0051,140.003,45.000,34491.13392,1.93677,389.402,32.814,45.068,45.000,0.00,0.10,-272.73,-272.79,-7,1013,-5,23.4,28.5,4.1,23.2,29.4,4.4,5.73,1.84,2.7,27.4
2015-08-12 00:28:00,0.0,1.91639,0.00060,383.880,0.088,1.0426,0.0049,139.999,45.000,34489.54321,1.93675,388.863,32.811,45.068,45.000,0.00,0.10,-272.73,-272.80,-7,1013,-5,23.4,28.5,4.1,23.2,29.3,4.3,5.73,1.87,2.7,27.4
2015-08-12 00:29:00,0.0,1.91583,0.00047,383.717,0.262,1.0575,0.0026,139.999,45.000,34488.30029,1.93639,388.765,32.813,45.068,45.000,0.00,0.10,-272.73,-272.80,-8,1012,-5,23.4,29.0,4.3,23.2,29.7,4.5,5.73,1.93,2.7,27.4
2015-08-12 00:30:00,0.0,1.91588,0.00077,384.317,0.191,1.0608,0.0019,140.001,45.000,34489.23079,1.93663,389.381,32.813,45.068,45.000,0.00,0.10,-272.74,-272.79,-7,1012,-5,23.4,29.0,4.4,23.2,29.8,4.6,5.73,1.96,2.8,27.4
2015-08-12 00:31:00,0.0,1.91537,0.00044,384.375,0.128,1.0448,0.0074,140.000,45.000,34491.17643,1.93576,389.372,32.810,45.068,45.000,0.00,0.10,-272.73,-272.80,-7,1012,-5,23.4,28.4,4.0,23.2,29.4,4.4,5.73,1.92,2.7,27.4
2015-08-12 00:32:00,0.0,1.91548,0.00048,384.238,0.166,1.0344,0.0017,140.002,45.000,34490.96294,1.93566,389.178,32.810,45.068,45.000,0.00,0.10,-272.73,-272.80,-7,1013,-5,23.4,28.2,3.9,23.2,29.0,4.2,5.73,1.86,2.7,27.3
2015-08-12 00:33:00,0.0,1.91533,0.00038,384.427,0.063,1.0358,0.0036,139.997,45.000,34488.05788,1.93549,389.384,32.812,45.068,45.000,0.00,0.10,-272.72,-272.79,-8,1012,-5,23.4,28.2,4.0,23.2,29.1,4.2,5.73,1.84,2.7,27.3
2015-08-12 00:34:00,0.0,1.91573,0.00060,384.160,0.273,1.0316,0.0029,139.999,45.000,34489.65054,1.93585,389.080,32.804,45.068,45.000,0.00,0.10,-272.73,-272.80,-8,1012,-5,23.4,28.1,3.9,23.2,28.9,4.1,5.73,1.88,2.7,27.4
2015-08-12 00:35:00,0.0,1.91535,0.00052,384.373,0.169,1.0335,0.0055,140.001,45.000,34491.74290,1.93548,389.318,32.803,45.068,45.000,0.00,0.10,-272.74,-272.80,-7,1012,-5,23.4,28.1,3.9,23.2,29.0,4.2,5.73,1.94,2.7,27.4
2015-08-12 00:36:00,0.0,1.91589,0.00078,383.845,0.250,1.0276,0.0015,140.000,45.000,34491.12434,1.93578,388.772,32.807,45.068,45.000,0.00,0.10,-272.74,-272.79,-7,1012,-5,23.4,28.0,3.8,23.2,28.8,4.1,5.73,1.95,2.7,27.4
2015-08-12 00:37:00,0.0,1.91491,0.00111,384.080,0.206,1.0370,0.0042,139.999,45.000,34491.19819,1.93525,389.024,32.807,45.068,45.000,0.00,0.10,-272.73,-272.79,-8,1013,-5,23.4,28.3,4.0,23.2,29.0,4.2,5.73,1.90,2.7,27.5
2015-08-12 00:38:00,0.0,1.91454,0.00080,384.237,0.248,1.0342,0.0046,140.000,45.000,34492.22763,1.93478,389.164,32.812,45.068,45.000,0.00,0.10,-272.73,-272.80,-8,1012,-5,23.4,28.2,4.0,23.2,29.1,4.2,5.73,1.84,2.7,27.4
2015-08-12 00:39:00,0.0,1.91425,0.00065,384.262,0.120,1.0260,0.0021,140.000,45.000,34494.42204,1.93417,389.171,32.811,45.068,45.000,0.00,0.10,-272.73,-272.80,-7,1012,-5,23.4,28.0,3.8,23.2,28.8,4.1,5.73,1.84,2.7,27.4
2015-08-12 00:40:00,0.0,1.91404,0.00104,384.179,0.169,1.0288,0.0014,139.999,45.000,34493.90134,1.93427,389.077,32.812,45.068,45.000,0.00,0.10,-272.73,-272.79,-7,1013,-5,23.4,28.0,3.9,23.2,28.8,4.1,5.73,1.90,2.8,27.4
2015-08-12 00:41:00,0.0,1.91231,0.00059,384.282,0.143,1.0264,0.0042,139.996,45.000,34492.90398,1.93219,389.198,32.813,45.068,45.000,0.00,0.10,-272.74,-272.79,-8,1013,-5,23.4,27.9,3.8,23.2,28.8,4.1,5.73,1.95,2.8,27.4
2015-08-12 00:42:00,0.0,1.91238,0.00062,384.171,0.187,1.0168,0.0022,139.997,45.000,34488.57482,1.93217,389.019,32.815,45.068,45.000,0.00,0.10,-272.74,-272.80,-8,1013,-5,23.4,27.7,3.6,23.2,28.4,3.9,5.73,1.95,2.7,27.5
2015-08-12 00:43:00,0.0,1.91233,0.00033,384.092,0.263,1.0158,0.0024,140.000,45.000,34490.01428,1.93215,388.962,32.814,45.068,45.000,0.00,0.10,-272.73,-272.80,-7,1012,-5,23.4,27.7,3.7,23.2,28.5,3.9,5.73,1.88,2.7,27.4
2015-08-12 00:44:00,0.0,1.91156,0.00069,384.034,0.220,1.0234,0.0043,140.001,45.000,34492.13387,1.93144,388.906,32.818,45.068,45.000,0.00,0.10,-272.73,-272.79,-7,1013,-5,23.4,27.9,3.8,23.2,28.6,4.0,5.73,1.84,2.8,27.5
2015-08-12 00:45:00,0.0,1.91140,0.00054,384.087,0.209,1.0216,0.0033,139.999,45.000,34491.05061,1.93128,388.961,32.813,45.068,45.000,0.00,0.10,-272.74,-272.80,-7,1012,-5,23.4,27.8,3.8,23.2,28.6,4.0,5.73,1.85,2.8,27.4
2015-08-12 00:46:00,0.0,1.91175,0.00039,384.065,0.106,1.0175,0.0029,140.000,45.000,34490.82170,1.93149,388.928,32.813,45.068,45.000,0.00,0.10,-272.74,-272.80,-8,1012,-5,23.4,27.7,3.7,23.2,28.5,3.9,5.73,1.91,2.7,27.5
2015-08-12 00:47:00,0.0,1.91188,0.00062,383.918,0.248,1.0190,0.0025,139.998,45.000,34490.51815,1.93175,388.768,32.814,45.068,45.000,0.00,0.10,-272.73,-272.80,-8,1012,-5,23.4,27.8,3.7,23.2,28.5,3.9,5.73,1.95,2.7,27.5
2015-08-12 00:48:00,0.0,1.91168,0.00062,384.312,0.053,1.0219,0.0032,140.001,45.000,34490.58387,1.93147,389.197,32.814,45.068,45.000,0.00,0.10,-272.74,-272.80,-7,1012,-5,23.4,27.8,3.7,23.2,28.6,4.0,5.73,1.95,2.7,27.4
2015-08-12 00:49:00,0.0,1.91228,0.00042,383.965,0.354,1.0136,0.0016,139.998,45.000,34488.80005,1.93198,388.826,32.813,45.068,45.000,0.00,0.10,-272.74,-272.80,-7,1012,-5,23.4,27.6,3.7,23.2,28.4,3.9,5.73,1.88,2.8,27.4
2015-08-12 00:50:00,0.0,1.91225,0.00039,383.694,0.350,1.0217,0.0056,140.001,45.000,34489.60687,1.93209,388.542,32.814,45.068,45.000,0.00,0.10,-272.73,-272.79,-8,1012,-5,23.4,27.8,3.8,23.2,28.6,4.0,5.73,1.84,2.7,27.5
2015-08-12 00:51:00,0.0,1.91296,0.00037,383.948,0.292,1.0273,0.0034,140.003,45.000,34491.30058,1.93290,388.872,32.817,45.068,45.000,0.00,0.10,-272.73,-272.79,-8,1013,-5,23.4,28.0,3.8,23.2,28.8,4.1,5.73,1.86,2.7,27.5
2015-08-12 00:52:00,0.0,1.91254,0.00052,383.927,0.193,1.0283,0.0052,139.999,45.000,34490.50476,1.93262,388.818,32.819,45.068,45.000,0.00,0.10,-272.74,-272.80,-7,1012,-5,23.4,28.1,3.9,23.2,28.8,4.0,5.73,1.92,2.8,27.5
2015-08-12 00:53:00,0.0,1.91337,0.00066,383.972,0.193,1.0296,0.0021,139.999,45.001,34490.22107,1.93332,388.883,32.839,45.068,45.000,0.00,0.10,-272.73,-272.79,-7,1012,-5,23.4,28.1,3.9,23.2,28.9,4.1,5.73,1.95,2.8,27.5
2015-08-12 00:54:00,0.0,1.91357,0.00033,384.104,0.105,1.0312,0.0014,140.001,45.000,34493.51631,1.93363,389.027,32.855,45.068,45.000,0.00,0.10,-272.73,-272.79,-7,1013,-5,23.4,28.1,3.9,23.2,28.9,4.1,5.73,1.93,2.8,27.4
2015-08-12 00:55:00,0.0,1.91552,0.00090,384.091,0.120,1.0302,0.0028,139.999,45.000,34492.73509,1.93544,389.007,32.859,45.068,45.000,0.00,0.10,-272.74,-272.80,-8,1012,-5,23.4,28.1,3.9,23.2,28.8,4.1,5.73,1.86,2.8,27.5
2015-08-12 00:56:00,0.0,1.91767,0.00071,383.728,0.287,1.0404,0.0030,140.001,45.000,34491.72237,1.93789,388.717,32.854,45.068,45.000,0.00,0.10,-272.74,-272.80,-7,1012,-5,23.4,28.4,4.1,23.2,29.1,4.2,5.73,1.84,2.8,27.4
2015-08-12 00:57:00,0.0,1.91655,0.00049,383.841,0.203,1.0490,0.0029,140.003,45.000,34493.31944,1.93710,388.838,32.856,45.068,45.000,0.00,0.10,-272.73,-272.80,-7,1012,-5,23.4,28.6,4.2,23.2,29.4,4.3,5.73,1.86,2.7,27.4
2015-08-12 00:58:00,0.0,1.91671,0.00047,383.927,0.115,1.0463,0.0017,140.001,45.000,34491.02571,1.93710,388.924,32.839,45.068,45.000,0.00,0.10,-272.73,-272.80,-7,1013,-5,23.4,28.5,4.1,23.2,29.4,4.3,5.73,1.92,2.8,27.4
2015-08-12 00:59:00,0.0,1.91651,0.00139,383.485,0.231,1.0471,0.0022,140.003,45.000,34490.26911,1.93707,388.476,32.827,45.068,45.000,0.00,0.10,-272.73,-272.80,-8,1013,-5,23.5,28.5,4.2,23.2,29.3,4.3,5.73,1.95,2.8,27.5
2015-08-12 01:00:00,0.0,1.91456,0.00038,383.517,0.339,1.0550,0.0020,139.997,45.000,34491.13610,1.93514,388.553,32.826,45.068,45.000,0.00,0.10,-272.73,-272.80,-8,1012,-5,23.4,28.8,4.3,23.2,29.6,4.4,5.73,1.91,2.8,27.5
2015-08-12 01:01:00,0.0,1.91426,0.00040,383.616,0.242,1.0576,0.0022,140.003,45.000,34493.47873,1.93488,388.673,32.815,45.068,45.000,0.00,0.10,-272.73,-272.79,-7,1012,-5,23.5,28.8,4.3,23.2,29.7,4.5,5.73,1.86,2.7,27.4
2015-08-12 01:02:00,0.0,1.91559,0.00079,383.355,0.237,1.0546,0.0022,140.000,45.000,34495.74901,1.93608,388.376,32.813,45.069,45.000,0.00,0.10,-272.73,-272.81,-7,1012,-5,23.4,28.8,4.3,23.2,29.6,4.4,5.73,1.83,2.7,27.3
2015-08-12 01:03:00,0.0,1.91628,0.00072,383.830,0.104,1.0643,0.0027,140.002,45.000,34494.27721,1.93695,388.922,32.813,45.068,45.000,0.00,0.10,-272.74,-272.80,-8,1013,-5,23.5,29.0,4.4,23.2,29.8,4.6,5.73,1.87,2.8,27.3
2015-08-12 01:04:00,0.0,1.91907,0.00118,383.471,0.273,1.0576,0.0030,140.005,45.000,34494.11703,1.93957,388.518,32.817,45.068,45.000,0.00,0.10,-272.74,-272.79,-8,1012,-5,23.5,28.8,4.3,23.2,29.6,4.5,5.73,1.94,2.8,27.4
2015-08-12 01:05:00,0.0,1.92014,0.00078,383.615,0.281,1.0637,0.0034,140.000,45.000,34491.36741,1.94092,388.693,32.822,45.068,45.000,0.00,0.10,-272.74,-272.79,-7,1012,-5,23.5,29.0,4.4,23.2,29.8,4.5,5.73,1.95,2.8,27.4
2015-08-12 01:06:00,0.0,1.92087,0.00050,383.828,0.275,1.0679,0.0030,139.999,45.000,34494.37055,1.94172,388.925,32.821,45.068,45.000,0.00,0.10,-272.74,-272.80,-7,1013,-5,23.5,29.1,4.5,23.2,29.9,4.6,5.73,1.91,2.8,27.5
2015-08-12 01:07:00,0.0,1.92174,0.00066,383.838,0.475,1.0661,0.0034,139.998,45.000,34493.87090,1.94261,388.928,32.814,45.068,45.000,0.00,0.10,-272.73,-272.79,-7,1013,-5,23.5,29.0,4.4,23.2,29.9,4.6,5.73,1.85,2.8,27.5
2015-08-12 01:08:00,0.0,1.92094,0.00054,383.694,0.249,1.0622,0.0022,139.998,45.000,34496.59878,1.94176,388.779,32.820,45.068,45.000,0.00,0.10,-272.73,-272.80,-8,1013,-5,23.5,28.9,4.3,23.2,29.8,4.5,5.73,1.84,2.8,27.4
2015-08-12 01:09:00,0.0,1.92074,0.00057,383.546,0.273,1.0648,0.0036,140.000,45.000,34495.38009,1.94158,388.621,32.813,45.068,45.000,0.00,0.10,-272.73,-272.80,-8,1012,-5,23.4,29.1,4.4,23.2,29.9,4.6,5.73,1.88,2.8,27.5
2015-08-12 01:10:00,0.0,1.92122,0.00068,383.871,0.138,1.0728,0.0024,140.002,45.000,34494.18173,1.94210,389.004,32.820,45.068,45.000,0.00,0.10,-272.74,-272.80,-7,1012,-5,23.5,29.2,4.5,23.2,30.1,4.7,5.73,1.94,2.8,27.5
2015-08-12 01:11:00,0.0,1.92128,0.00064,383.804,0.198,1.0707,0.0018,139.996,45.000,34492.61302,1.94231,388.910,32.836,45.068,45.000,0.00,0.10,-272.73,-272.79,-7,1013,-5,23.5,29.2,4.5,23.2,30.0,4.7,5.73,1.95,2.8,27.5
2015-08-12 01:12:00,0.0,1.92161,0.00049,383.804,0.127,1.0698,0.0025,140.000,45.000,34495.41757,1.94251,388.921,32.828,45.068,45.000,0.00,0.10,-272.73,-272.80,-8,1013,-5,23.5,29.1,4.5,23.2,30.0,4.7,5.73,1.89,2.8,27.5
2015-08-12 01:13:00,0.0,1.92275,0.00038,383.764,0.135,1.0680,0.0017,140.005,45.000,34496.39239,1.94362,388.869,32.819,45.068,45.000,0.00,0.10,-272.73,-272.80,-8,1012,-5,23.5,29.1,4.5,23.2,30.0,4.7,5.73,1.85,2.8,27.5
2015-08-12 01:14:00,0.0,1.92297,0.00041,383.698,0.258,1.0710,0.0035,140.000,45.000,34495.17525,1.94391,388.806,32.817,45.068,45.000,0.00,0.10,-272.73,-272.80,-7,1013,-5,23.4,29.3,4.5,23.2,30.0,4.7,5.73,1.85,2.8,27.5
2015-08-12 01:15:00,0.0,1.92291,0.00051,383.849,0.298,1.0794,0.0024,139.997,45.000,34491.94397,1.94407,389.003,32.819,45.068,45.000,0.00,0.10,-272.73,-272.80,-7,1012,-5,23.5,29.5,4.6,23.2,30.3,4.8,5.73,1.90,2.8,27.5
2015-08-12 01:16:00,0.0,1.92350,0.00028,383.858,0.112,1.0781,0.0016,140.002,45.000,34494.69527,1.94462,389.020,32.815,45.068,45.000,0.00,0.10,-272.74,-272.80,-8,1013,-5,23.5,29.4,4.6,23.2,30.2,4.7,5.73,1.95,2.8,27.5
2015-08-12 01:17:00,0.0,1.92376,0.00043,384.058,0.108,1.0765,0.0018,139.999,45.000,34492.57078,1.94481,389.207,32.823,45.068,45.000,0.00,0.10,-272.74,-272.80,-8,1012,-5,23.5,29.3,4.5,23.2,30.2,4.8,5.73,1.94,2.8,27.5
2015-08-12 01:18:00,0.0,1.92388,0.00027,383.859,0.181,1.0677,0.0024,140.002,45.000,34495.65734,1.94484,388.972,32.824,45.068,45.000,0.00,0.10,-272.73,-272.79,-7,1012,-5,23.5,29.1,4.4,23.2,29.9,4.7,5.73,1.89,2.8,27.5
2015-08-12 01:19:00,0.0,1.92395,0.00046,383.272,0.178,1.0720,0.0027,140.001,45.000,34495.60066,1.94488,388.393,32.829,45.068,45.000,0.00,0.10,-272.74,-272.80,-7,1012,-5,23.4,29.2,4.5,23.2,30.0,4.7,5.73,1.84,2.8,27.5
2015-08-12 01:20:00,0.0,1.92383,0.00048,383.547,0.212,1.0842,0.0035,139.998,45.000,34494.23973,1.94514,388.703,32.830,45.068,45.000,0.00,0.10,-272.74,-272.79,-8,1012,-5,23.5,29.7,4.7,23.3,30.4,4.9,5.73,1.85,2.8,27.5
2015-08-12 01:21:00,0.0,1.92414,0.00053,383.951,0.159,1.0892,0.0030,140.002,45.000,34493.40057,1.94545,389.173,32.830,45.068,45.000,0.00,0.10,-272.73,-272.79,-8,1012,-5,23.4,29.7,4.7,23.3,30.6,5.0,5.73,1.90,2.8,27.4
2015-08-12 01:22:00,0.0,1.92452,0.00044,383.942,0.219,1.0738,0.0039,140.000,45.000,34494.29561,1.94559,389.059,32.820,45.068,45.000,0.00,0.10,-272.74,-272.80,-8,1012,-5,23.4,29.2,4.5,23.2,30.1,4.8,5.73,1.95,2.8,27.5
2015-08-12 01:23:00,0.0,1.92516,0.00031,384.117,0.090,1.0731,0.0048,140.002,45.000,34494.98555,1.94615,389.257,32.838,45.068,45.000,0.00,0.10,-272.74,-272.80,-7,1012,-5,23.4,29.2,4.5,23.2,30.1,4.7,5.73,1.94,2.8,27.5
2015-08-12 01:24:00,0.0,1.92524,0.00053,384.040,0.162,1.0665,0.0016,139.999,45.000,34492.97370,1.94621,389.147,32.850,45.068,45.000,0.00,0.10,-272.73,-272.79,-7,1012,-5,23.5,29.0,4.4,23.2,29.9,4.6,5.73,1.89,2.8,27.4
2015-08-12 01:25:00,0.0,1.92516,0.00036,383.811,0.217,1.0702,0.0033,140.004,45.000,34494.46857,1.94611,388.916,32.845,45.068,45.000,0.00,0.10,-272.73,-272.79,-8,1012,-5,23.4,29.1,4.4,23.2,30.0,4.7,5.73,1.84,2.8,27.5
2015-08-12 01:26:00,0.0,1.92494,0.00035,383.952,0.135,1.0738,0.0028,139.997,45.000,34493.41755,1.94597,389.088,32.823,45.068,45.000,0.00,0.10,-272.74,-272.80,-8,1012,-5,23.5,29.2,4.5,23.2,30.1,4.7,5.73,1.85,2.8,27.5
2015-08-12 01:27:00,0.0,1.92632,0.00046,383.885,0.182,1.0698,0.0024,139.999,45.000,34491.04820,1.94729,388.993,32.827,45.068,45.000,0.00,0.10,-272.73,-272.80,-7,1012,-5,23.4,29.2,4.4,23.2,30.0,4.7,5.73,1.90,2.8,27.5
2015-08-12 01:28:00,0.0,1.92650,0.00032,384.006,0.113,1.0781,0.0023,140.002,45.000,34492.94382,1.94765,389.171,32.830,45.068,45.000,0.00,0.10,-272.73,-272.80,-7,1012,-5,23.5,29.3,4.6,23.3,30.2,4.8,5.73,1.94,2.8,27.5
2015-08-12 01:29:00,0.0,1.92655,0.00037,383.680,0.185,1.0719,0.0026,140.002,45.000,34492.80692,1.94759,388.807,32.835,45.068,45.000,0.00,0.10,-272.74,-272.80,-7,1013,-5,23.4,29.2,4.5,23.3,30.0,4.8,5.73,1.93,2.8,27.5
2015-08-12 01:30:00,0.0,1.92673,0.00035,383.684,0.191,1.0765,0.0028,139.997,45.000,34490.53056,1.94780,388.813,32.855,45.068,45.000,0.00,0.10,-272.74,-272.79,-8,1012,-5,23.5,29.4,4.6,23.3,30.2,4.8,5.73,1.88,2.8,27.5
2015-08-12 01:31:00,0.0,1.92695,0.00034,383.807,0.215,1.0804,0.0023,140.000,45.000,34489.56277,1.94817,388.979,32.870,45.068,45.000,0.00,0.10,-272.73,-272.79,-8,1012,-5,23.5,29.4,4.6,23.3,30.3,4.8,5.73,1.84,2.8,27.6
2015-08-12 01:32:00,0.0,1.92748,0.00045,383.975,0.166,1.0831,0.0027,140.001,45.000,34489.21180,1.94875,389.146,32.874,45.068,45.000,0.00,0.10,-272.74,-272.79,-7,1012,-5,23.5,29.5,4.6,23.3,30.3,4.9,5.73,1.85,2.8,27.5
2015-08-12 01:33:00,0.0,1.92799,0.00038,383.963,0.144,1.0781,0.0037,140.000,45.000,34487.54116,1.94912,389.129,32.875,45.068,45.000,0.00,0.10,-272.74,-272.80,-7,1012,-5,23.5,29.3,4.6,23.2,30.2,4.8,5.73,1.90,2.8,27.5
2015-08-12 01:34:00,0.0,1.92823,0.00042,383.945,0.176,1.0753,0.0031,139.998,45.000,34488.49263,1.94931,389.080,32.874,45.068,45.000,0.00,0.10,-272.74,-272.80,-8,1012,-5,23.5,29.3,4.6,23.3,30.2,4.8,5.73,1.94,2.8,27.6
2015-08-12 01:35:00,0.0,1.92847,0.00034,383.883,0.180,1.0787,0.0030,140.002,45.000,34489.97347,1.94966,389.031,32.875,45.068,45.000,0.00,0.10,-272.73,-272.79,-8,1012,-5,23.5,29.4,4.6,23.2,30.2,4.8,5.73,1.94,2.8,27.5
2015-08-12 01:36:00,0.0,1.92835,0.00030,384.074,0.087,1.0813,0.0026,140.004,45.000,34491.53944,1.94962,389.251,32.875,45.068,45.000,0.00,0.10,-272.74,-272.79,-7,1012,-5,23.5,29.3,4.6,23.3,30.3,4.8,5.73,1.89,2.8,27.4
2015-08-12 01:37:00,0.0,1.92831,0.00044,383.824,0.134,1.0722,0.0028,140.000,45.000,34492.58937,1.94939,388.953,32.864,45.068,45.000,0.00,0.10,-272.73,-272.79,-7,1012,-5,23.5,29.2,4.5,23.3,30.1,4.8,5.73,1.85,2.8,27.4
2015-08-12 01:38:00,0.0,1.92724,0.00076,383.941,0.122,1.0783,0.0033,139.998,45.000,34492.20362,1.94849,389.092,32.873,45.068,45.000,0.00,0.10,-272.72,-272.79,-8,1012,-5,23.5,29.4,4.6,23.2,30.2,4.8,5.73,1.85,2.8,27.4
2015-08-12 01:39:00,0.0,1.92765,0.00042,383.805,0.168,1.0724,0.0047,139.997,45.000,34491.37476,1.94863,388.942,32.859,45.068,45.000,0.00,0.10,-272.73,-272.80,-8,1012,-5,23.5,29.2,4.5,23.2,30.1,4.7,5.73,1.89,2.8,27.4
2015-08-12 01:40:00,0.0,1.92871,0.00032,383.844,0.089,1.0715,0.0023,140.000,45.000,34491.46103,1.94976,388.960,32.861,45.068,45.000,0.00,0.10,-272.74,-272.80,-7,1012,-5,23.5,29.2,4.5,23.3,30.0,4.7,5.73,1.94,2.8,27.5
2015-08-12 01:41:00,0.0,1.92886,0.00066,383.178,0.253,1.0770,0.0037,140.001,45.000,34490.31314,1.95004,388.329,32.866,45.068,45.000,0.00,0.10,-272.73,-272.79,-7,1012,-5,23.4,29.3,4.5,23.2,30.1,4.8,5.73,1.94,2.8,27.5
2015-08-12 01:42:00,0.0,1.92748,0.00069,383.677,0.284,1.0869,0.0032,140.003,45.000,34491.73510,1.94882,388.853,32.874,45.068,45.000,0.00,0.10,-272.73,-272.80,-7,1012,-5,23.5,29.6,4.7,23.3,30.4,4.9,5.73,1.91,2.8,27.5
2015-08-12 01:43:00,0.0,1.92753,0.00033,383.709,0.230,1.0818,0.0037,140.000,45.000,34491.13769,1.94880,388.883,32.874,45.068,45.000,0.00,0.10,-272.74,-272.80,-8,1012,-5,23.5,29.4,4.6,23.3,30.4,4.9,5.73,1.85,2.8,27.5
2015-08-12 01:44:00,0.0,1.92776,0.00073,383.453,0.431,1.0792,0.0019,140.000,45.000,34491.54002,1.94904,388.619,32.875,45.068,45.000,0.00,0.10,-272.73,-272.80,-8,1012,-5,23.5,29.4,4.6,23.3,30.2,4.8,5.73,1.85,2.8,27.5
2015-08-12 01:45:00,0.0,1.92680,0.00063,383.416,0.246,1.0865,0.0038,140.000,45.000,34490.17031,1.94815,388.606,32.877,45.068,45.000,0.00,0.10,-272.73,-272.79,-7,1012,-5,23.5,29.6,4.7,23.3,30.4,4.9,5.73,1.88,2.8,27.5
2015-08-12 01:46:00,0.0,1.92647,0.00038,383.524,0.219,1.0897,0.0028,140.001,45.000,34488.95206,1.94781,388.726,32.881,45.068,45.000,0.00,0.10,-272.74,-272.80,-7,1012,-5,23.5,29.6,4.8,23.3,30.5,5.0,5.73,1.93,2.8,27.5
2015-08-12 01:47:00,0.0,1.92673,0.00041,383.483,0.175,1.0826,0.0029,140.000,45.000,34488.00998,1.94805,388.663,32.878,45.068,45.000,0.00,0.10,-272.74,-272.79,-7,1012,-5,23.5,29.4,4.7,23.3,30.4,4.9,5.73,1.94,2.8,27.5